Regional Weather Roundup
Issued by NWS

Home | Current Version | Previous Version | Graphics & Text | Print | Product List | Glossary On
Versions: 1 2 3 4 5 6 7 8 9 10 11 12 13 14 15 16 17 18 19 20 21 22 23 24 25 26 27 28 29 30 31 32 33 34 35 36 37 38 39 40 41 42 43 44 45 46 47 48 49 50
000
ASUS45 KBOU 041207
RWRCO

WEATHER ROUNDUP FOR COLORADO
NATIONAL WEATHER SERVICE DENVER/BOULDER CO
600 AM MDT MON MAY 04 2015

NOTE: "FAIR" INDICATES FEW OR NO CLOUDS BELOW 12000 FEET WITH NO
SIGNIFICANT WEATHER AND/OR OBSTRUCTIONS TO VISIBILITY.

COZ001>005-013-030-031-041300-
...NORTHWEST COLORADO...

CITY           SKY/WX    TMP DP  RH WIND       PRES   REMARKS
CRAIG          CLOUDY    42  39  89 CALM      30.06R
HAYDEN         CLOUDY    45  37  76 E9        30.06R
MEEKER         PTCLDY    40  38  93 CALM      30.06S
MOUNT WERNER   NOT AVBL
STEAMBOAT SPGS CLOUDY    42  36  79 CALM      30.07S
WALDEN         PTCLDY    32  30  93 SE7       30.13S WCI  26
$$

COZ006>008-011-041300-
...WEST CENTRAL VALLEYS...

CITY           SKY/WX    TMP DP  RH WIND       PRES   REMARKS
GRAND JUNCTION PTCLDY    53  42  66 E10       29.99S
MONTROSE       CLOUDY    45  38  76 S5        30.06S
EAGLE          CLOUDY    41  39  93 CALM      30.12S
RIFLE          PTCLDY    46  44  93 CALM      30.05S
DELTA          MOCLDY    46  44  90 CALM      30.03S
NUCLA          MOCLDY    48  37  66 CALM      30.07R
$$

COZ017>023-064>068-041300-
...SOUTHWEST COLORADO...

CITY           SKY/WX    TMP DP  RH WIND       PRES   REMARKS
DURANGO        PTCLDY    36  33  89 NE3       30.08R
CORTEZ         CLEAR     40  35  83 CALM      30.04S
PAGOSA SPRINGS PTCLDY    36  36 100 NE3       30.14R
TELLURIDE      PTCLDY    38  35  88 SE8       30.18S
WOLF CREEK PAS NOT AVBL
$$

COZ009-010-012-014-032>034-037-058>063-041300-
...CENTRAL COLORADO...

CITY           SKY/WX    TMP DP  RH WIND       PRES   REMARKS
ASPEN          CLOUDY    40  36  86 S3        30.11R
BUENA VISTA    NOT AVBL
COPPER MTN     MOCLDY    34  28  80 S13       30.26F WCI  25
BERTHOUD PASS  HAZE      28  19  69 SE13      30.30S VSB<1/4 WCI  18
COTTONWOOD PAS CLOUDY    39  34  81 CALM      30.21S
GUNNISON       MOCLDY    39  36  87 CALM      30.18S
KREMMLING      MOCLDY    34  32  93 CALM      30.14R
LEADVILLE      CLOUDY    34  33  96 CALM      30.19S
MONARCH PASS   CLOUDY    32  30  93 SW7       30.38S WCI  26
SALIDA         CLOUDY    47  42  82 CALM      30.22S
SUNLIGHT       MOCLDY    36  34  93 CALM      30.25S
WILKERSON PASS FOG       32  32 100 SW3       30.28S VSB 1/4
$$

COZ069>075-041300-
...SAN LUIS VALLEY/SANGRE DE CRISTO MOUNTAINS...

CITY           SKY/WX    TMP DP  RH WIND       PRES   REMARKS
ALAMOSA        PTCLDY    34  30  85 W8        30.13R WCI  27
LA VETA PASS   FOG       36  34  93 MISG      30.23R VSB 1/4
SAGUACHE       MOCLDY    41  36  81 NW10      30.15R
$$

COZ035-036-038>040-041300-
...NORTHERN COLORADO FRONT RANGE...

CITY           SKY/WX    TMP DP  RH WIND       PRES   REMARKS
DENVER INTL AP CLOUDY    49  46  90 N5        30.10S
DMNS CITY PARK   N/A     51  47  87 N2        30.10S
AURORA         MOCLDY    48  48  99 NE6       30.11S
FRONT RANGE AP NOT AVBL
ERIE MUNI ARPT RAIN      50  49  97 CALM      30.11R
BOULDER MUN AP LGT RAIN  48  48 100 CALM      30.10S
CENTENNIAL     CLOUDY    49  45  86 N3        30.10S
BROOMFIELD     LGT RAIN  50  48  93 N6        30.12S
FORT COLLINS   CLOUDY    50  46  87 CALM      30.12S
LONGMONT       RAIN      51  49  94 CALM      30.13R
$$

COZ041-046-047-076>085-087-088-041300-
...PIKES PEAK/PALMER DIVIDE AND SOUTHERN FOOTHILLS...

CITY           SKY/WX    TMP DP  RH WIND       PRES   REMARKS
COLO. SPRINGS  CLOUDY    49  45  86 W5        30.12R
A. F. ACADEMY  CLOUDY    46  46  99 N6        30.12R
ELLICOTT       CLOUDY   N/A N/A N/A NE3       30.10R
FALCON         CLOUDY    45  44  95 NW6       30.14R
FORT CARSON    CLOUDY    49  46  90 NW6       30.09R
LIMON          CLOUDY    48  45  89 N6        30.09R
MONUMENT HILL  DRIZZLE   43  43 100 CALM      30.13R
TRINIDAD       PTCLDY    43  39  86 W8        30.09R
$$

COZ042>045-048>051-090-091-041300-
...NORTHEAST COLORADO...

CITY           SKY/WX    TMP DP  RH WIND       PRES   REMARKS
GREELEY ARPT   CLOUDY    50  41  71 E8        30.11R
AKRON          CLOUDY    48  39  71 NE3       30.09R
BURLINGTON     LGT RAIN  49  45  86 NE12      30.07R
WRAY           CLOUDY    52  40  64 N5        30.08R
STERLING       CLOUDY    48  41  76 N3        30.08S
HOLYOKE        NOT AVBL
FORT MORGAN    CLOUDY    49 -10   8 E7        30.11R
$$

COZ086-089-092>099-041300-
...SOUTHEAST COLORADO...

CITY           SKY/WX    TMP DP  RH WIND       PRES   REMARKS
PUEBLO         CLOUDY    55  47  74 N3        30.05R
LA JUNTA       MOCLDY    54  49  83 NW8       30.03R
LAMAR          CLOUDY    53  50  89 NE5       29.98R
SPRINGFIELD      N/A     51  46  83 NW18      29.99R
$$



USA.gov is the U.S. government's official web portal to all federal, state and local government web resources and services.